Location: Newark
(39.9581°N, 97.2014°W)
Time: 18:24:27
(UTC+00:00)

Envisat - Pass Details

Date: 26 January 2020
Orbit: 764 x 766 km, 98.1° (Epoch: 17 February)

Event Time Altitude Azimuth Distance (km) Brightness Sun altitude
Rises 01:47:57 0° 217° (SW) 3,220 6.8 -24.6°
Reaches altitude 10° 01:51:47 10° 247° (WSW) 2,300 6.4 -25.3°
Maximum altitude 01:53:48 12° 271° (W) 2,146 6.3 -25.7°
Drops below altitude 10° 01:55:50 10° 294° (WNW) 2,306 6.3 -26.1°
Sets 01:59:42 0° 324° (NW) 3,239 6.7 -26.8°
